User: anonymous   Login
Location: Unspecified
(0.0000°N, 0.0000°E)
Time: 05:57:54
(UTC+00:00)
Language:

CZ-3B DEB - Orbit

View from above orbital plane
View from above orbital plane
View from above satellite
View from above satellite

Ground track
Ground track

The orbit data is extracted from the following two-line orbital elements,

1 40186U 11077K   21287.30270506 -.00000152  00000-0  00000+0 0  9996
2 40186  25.1313 153.9405 7322586 253.2145 336.5263  1.88687677 67647
Epoch (UTC): 14 October 2021 07:15:53
Eccentricity: 0.7322586
inclination: 25.1313°
perigee height: 1028 km
apogee height: 41541 km
right ascension of ascending node: 153.9405°
argument of perigee: 253.2145°
revolutions per day: 1.88687677
mean anomaly at epoch: 336.5263°
orbit number at epoch: 6764

The dashed part of the orbit path shows where the satellite is in the earth's shadow,  

DLR